Airfield :
LOGIN :

Register | Disclaimer

   EN    FR    IT 

 










Legend :    VFR   Marginal VFR   IFR   Intensive IFR   Very Intensive IFR
Visi :
Ceiling :
>= 8 km
>= 3000ft
5 to 8 km
1000 to 3000 ft
1500m to 5 km
500 to 1000 ft
800 to 1500m
200 to 500 ft
< 800m
< 200 ft
Symbols :   Thunderstorms  Fog  Heavy snow  Heavy precipitations  Wind > 20 kt
SIGMETs :     Misc.  Thunderstorms  Icing  Turbulence  Mountain Waves  Volcanic Ashes







- Airport Elevation : 158 ft
- IATA code : QAR


EHDL - Deelen Airbase

CURRENT METAR :
  • 182155Z AUTO VRB02KT 3800 BR OVC100 14/12 Q1012 BLACKGRN

EXPIRED METARs :
  • 182125Z AUTO VRB02KT 2800 BR OVC120 13/12 Q1012 BLACKYLO
  • 182055Z AUTO 11003KT 080V180 2600 BR OVC140 13/12 Q1012 BLACKYLO
  • 182025Z AUTO VRB02KT 2000 BR OVC160 14/12 Q1012 BLACKYLO
  • 181955Z AUTO VRB02KT 2800 BR OVC170 13/12 Q1012 BLACKYLO
  • 181925Z AUTO 11003KT 050V220 1900 BR OVC200 14/13 Q1012 BLACKYLO

Expired Forecast.
No reported NOTAMs for that airfield.



MET'MAP, your aeronautical weather chart ! - Copyright ORBIFLY December 2007 - Disclaimer

ORBIFLY MET'MAP TEAM :

Programming & Development : Alexandra Zaïnal
Concept & Development : Baudouin d'Aumeries
Co-Development & Prog : Marc-Olivier Méhu
Technical & hardware support : Manuel Goepfert

Contact : metmap@orbifly.com




SOURCES & CREDITS :

   NOAA